Regional Weather Roundup
Issued by NWS Wakefield, VA

Home | Current Version | Previous Version | Graphics & Text | Print | Product List | Glossary On
Versions: 1 2 3 4 5 6 7 8 9 10 11 12 13 14 15 16 17 18 19 20 21 22 23 24 25 26 27
000
ASUS41 KAKQ 222015
RWRAKQ

REGIONAL WEATHER ROUNDUP
NATIONAL WEATHER SERVICE WAKEFIELD VA
300 PM EST SUN JAN 22 2017

Note: "fair" indicates few or no clouds below 12,000 feet with no
significant weather and/or obstructions to visibility. * = Denotes
station may not report precipitation (e.g., rain,snow,etc.),
thunder or fog.

VAZ042-051-052>054-056-222100-
NORTHERN VIRGINIA

CITY           SKY/WX    TMP DP  RH WIND       PRES   REMARKS
WASH NATIONAL  LGT RAIN  51  51 100 NW5       29.66R VSB 1
DULLES         CLOUDY    49  46  90 NW10      29.65R
FORT BELVOIR   LGT RAIN  50  48  93 CALM      29.65R FOG
QUANTICO       LGT RAIN  49  49 100 N5        29.65R VSB 1
FREDERICKSBRG* DRIZZLE   50  50 100 N6        29.62F
STAFFORD*      HVY RAIN  48  48 100 N6        29.66F
WARRENTON      DRIZZLE   51  47  87 NE5       29.62F
CULPEPER*      CLOUDY    51  50  93 N9        29.62F
MANASSAS*      HVY RAIN N/A N/A N/A NE7       29.64R FOG
LEESBURG*      CLOUDY    50  50 100 N7        29.65F
WINCHESTER     CLOUDY    45  45 100 NE3       29.63F FOG
FRONT ROYAL*   CLOUDY    46  46 100 NE5       29.60F
LURAY*         CLOUDY    46  46 100 CALM      29.62R FOG
$$

VAZ048-049-060>072-079>083-222100-
CENTRAL AND SOUTH CENTRAL VIRGINIA

CITY           SKY/WX    TMP DP  RH WIND       PRES   REMARKS
RICHMOND       CLOUDY    50  50 100 N8        29.59F FOG
CHESTERFIELD*  CLOUDY    52  37  58 N5        29.60S
PETERSBURG*    CLOUDY    52  50  93 N5        29.58F FOG
HANOVER        CLOUDY    51  49  92 N5        29.61S FOG
TAPPAHANNOCK*  DRIZZLE   50  50 100 N5        29.61R
QUINTON*       CLOUDY    50  50 100 NW3       29.59F FOG
CHARLOTTSVILLE CLOUDY    54  51  90 E3        29.60R
GORDONSVILLE*  CLOUDY    51  50  99 N3        29.61R
ORANGE*        DRIZZLE   50  50 100 N6        29.63R
LOUISA*        DRIZZLE   54  52  94 N6        29.59S
BUMPASS*       CLOUDY    50  50 100 NE3       29.59F
FARMVILLE*     CLOUDY    52  52 100 NE10      29.56F FOG
CREWE*         CLOUDY    50  50 100 N5        29.57F
FORT PICKETT*  CLOUDY   N/A N/A N/A N5        29.57F
CHASE CITY*    CLOUDY    52  50  94 NE3       29.56S
CLARKSVILLE*   CLOUDY    52  52 100 CALM      29.55F
SOUTH HILL*    CLOUDY    52  52 100 CALM      29.61F
LAWRENCEVILLE* CLOUDY    52  51  97 CALM      29.56F
EMPORIA*       CLOUDY    52  52 100 N3        29.58F FOG
$$

VAZ088>098-222100-
SOUTHEAST VIRGINIA

CITY           SKY/WX    TMP DP  RH WIND       PRES   REMARKS
NORFOLK        FOG       50  50 100 CALM      29.58R VSB 1
VIRGINIA BEACH DRZL/FOG  48  46  93 N14       29.57R VSB 1
NORFOLK NAVAL  CLOUDY    51  48  89 NW3       29.60R FOG
WEST POINT*    CLOUDY    50  50 100 NW3       29.61R VSB 1
SALUDA*        CLOUDY    48  48 100 NW6       29.60R VSB 3/4
NEWPORT NEWS   CLOUDY    51  50  96 N5        29.57F FOG
LANGLEY AFB    CLOUDY    51  51 100 N3        29.58R
FORT EUSTIS    CLOUDY    51  49  94 N5        29.56R
WILLIAMSBURG*  CLOUDY    52  52 100 NW6       29.59F
HR EXEC AP*    CLOUDY    52  48  87 N3        29.56F
FRANKLIN*      CLOUDY    51  50  96 N3        29.58S
US460-WAKEFLD  CLOUDY    52  51  97 VRB3      29.57F FOG
$$

VAZ020-022-025-037-045-222100-
WEST CENTRAL AND SOUTHWEST VIRGINIA

CITY           SKY/WX    TMP DP  RH WIND       PRES   REMARKS
STAUNTON*      LGT RAIN  47  46  97 NE3       29.62S
WAYNESBORO*    CLOUDY    46  45  96 CALM      29.60S
HOT SPRINGS VA SNOW      46  46 100 E8        29.54F VSB<1/4
LYNCHBURG      CLOUDY    52  50  93 NE8       29.57S
DANVILLE       CLOUDY    52  52 100 NE6       29.55S
SOUTH BOSTON*  CLOUDY    52  51  95 NE3       29.55F
MARTINSVILLE   CLOUDY    52  51  95 E7        29.56S
ROANOKE        LGT RAIN  53  52  96 E5        29.55F FOG
BLACKSBURG     CLOUDY    51  51  98 E9        29.55F
DUBLIN*        CLOUDY    53  53 100 E9G17     29.53S
MARION*        CLOUDY    56  52  85 E10       29.52R
HILLSVILLE*    CLOUDY    52  51  95 S6        29.52R
RICHLANDS*     CLOUDY    60  49  67 SE3       29.46R
WISE*          PTSUNNY   59  46  63 S6        29.45S
ABINGDON*      CLOUDY    64  53  68 E7        29.43S
$$

MDZ021>025-VAZ099-100-222100-
SOUTHERN MARYLAND AND THE DELMARVA PENINSULA

CITY           SKY/WX    TMP DP  RH WIND       PRES   REMARKS
PATUXENT RIVER FOG       46  46 100 NW9       29.60R VSB 1/2
BAY BRIDGE APT CLOUDY    46  46 100 NE8       29.58F FOG
LEONARDTOWN    CLOUDY    45  45 100 W5        29.64R
DOVER          CLOUDY    48  48 100 N10       29.60F
GEORGETOWN     FOG       50  49  96 NE9       29.59S VSB 1/4
EASTON         CLOUDY    50  48  93 NE9       29.62F FOG
CAMBRIDGE      CLOUDY    46  46 100 N9        29.56F VSB 1/2
SALISBURY      FOG       50  50 100 NE12      29.55F VSB 1/2
OCEAN CITY     FOG       47  47 100 NE16G25   29.57S VSB 1/2
WALLOPS ISLAND FOG       51  51 100 NE16      29.51F VSB 1
ACCOMACK*      FOG       52  51  98 N3        29.51F VSB 1/4
$$

NCZ012>017-030>032-222100-
NORTH CENTRAL AND EASTERN NORTH CAROLINA

CITY           SKY/WX    TMP DP  RH WIND       PRES   REMARKS
ROANOKE RAPIDS FOG       52  52 100 NE3       29.55F VSB 3/4
RALEIGH        CLOUDY    55  53  93 NE6       29.54S VSB 3/4
ELIZABETH CITY CLOUDY    55  54  96 W3        29.57R
AHOSKIE*       DRIZZLE   53  52  98 CALM      29.57F
EDENTON*       CLOUDY    57  55  95 CALM      29.56F FOG
CURRITUCK*     CLOUDY    54  54 100 N6        29.56F
KILL DEVIL HLS NOT AVBL
MANTEO         FOG       54  54 100 N3        29.55F VSB 1/4
CAPE HATTERAS  FOG       63  60  90 CALM      29.54F VSB 1/4
TARBORO*       NOT AVBL
GOLDSBORO      CLOUDY    60  60 100 NE5       29.50F
WASHINGTON     CLOUDY    64  58  81 CALM        N/A
GREENVILLE     CLOUDY    57  57 100 N3        29.58F FOG
NEW BERN       MOSUNNY   63  59  87 NE5       29.54F
WILMINGTON     CLOUDY    62  60  93 SE6       29.54R
$$

VAZ048-222100-
ELSEWHERE

CITY           SKY/WX    TMP DP  RH WIND       PRES   REMARKS
HARRISBURG PA  CLOUDY    46  45  96 NE3       29.65F
BALTIMORE      CLOUDY    51  50  96 NW6       29.62R
ANNAPOLIS      CLOUDY    49  46  90 N10       29.58F FOG
ANDREWS AFB    HVY RAIN  48  48 100 NW8       29.64R FOG
PHILADELPHIA   LGT RAIN  49  48  97 NE7       29.66R FOG
HENDERSON NC   CLOUDY    50  49  97 NE6       29.53F FOG
GREENSBORO     LGT RAIN  53  53 100 NE8       29.53R FOG
ROCKY MOUNT    CLOUDY    55  55 100 NE6       29.53F
$$

VAZ100-222100-
MARINE

STATION/POSITION TIME  TEMP    WIND        PRES    WAVE   SWELL
                       AIR SEA DIR/SP/G            HT/PER HT/PER
                 (UTC) (F)     (DEG/KT/KT) (MB)    (FT/S) (FT/S)
CAPE MAY NJ      1948   51 42   40/  5/  7 1001.9F
LEWES DE         1948   43 42  310/  3/  4 1002.3F
OCEAN-CITY-INLET 1948   45 43   40/ 10/ 17 1001.5F
WACHAPREAGUE VA  1948   52 49   30/ 15/ 23  999.2F
THOMAS POINT MD  2000   44 40   20/ 11/ 12   N/A
GOOSES REEF MD   1950   43     350/ 10/ 12 1002.4F
COVE POINT MD    1948   42     340/ 17/ 18 1002.3R
SOLOMONS ISLAND  1948   45 42  290/  5/ 10   N/A
BISHOPS HEAD MD  1948   48 44   30/ 10/ 16 1000.6F
PINEY POINT MD   1948          320/ 10/ 11   N/A
POTOMAC MD       1950   45     350/  8/ 10 1000.9R
CAMBRIDGE MD     1948   48 40   30/ 10/ 13 1000.2F
LEWISETTA VA     1948   46 44  320/  7/  8 1002.3R
RAPPAHANNOCK LGT 1948          310/ 13/ 14 1001.7R
STINGRAY PT      1950   45     340/ 12/ 14 1001.9R
YORK RVR RNG VA  1948   48     310/  8/  9 1001.3R
YORKTOWN VA      1948   49 44  320/  8/  9 1001.2R
JAMESTOWN VA     1950   49     330/  4/  6   N/A
DOMINION TERM VA 1948   49     270/  6/  6 1001.8R
CHES BAY BRIDGE  1948   45 44  300/  9/ 13 1001.7R
CAPE HENRY VA    1948   45     290/ 12/ 16   N/A
WILLOUBY STN VA  1948   47     230/  4/  4 1002.7R
S CRANEY ISL VA  1948   49      30/  2/  3 1001.7R
CAPE HENRY BUOY  1942      48                N/A     4/13   2/13
OFFSHORE WE BUOY 1951      49                N/A     4/13   2/13
64NM E OF VA BCH 1950   51 56  280/  8/ 10  999.2F   5/12   5/12
DUCK PIER NC     1948   49 46  350/  4/  4 1000.7R
44100 DUCK FRF   1935      48                N/A     4/13   2/13
44056 DUCK FRF   1930      47                N/A     3/13   2/13
OREGON INLET NC  1942   53 50  200/ 11/ 13 1000.6R
HATTERAS NC      1948   60 54     CALM      999.2F
DIAMOND SHLS NC  1950   65 72  260/  8/ 10  999.9F   4/11   3/11
CAPE LOOKOUT NC  1900   61     140/  7/  8  999.1F
$$




USA.gov is the U.S. government's official web portal to all federal, state and local government web resources and services.